Starlink 11535

operational
NORAD ID: 62595 Int'l Des: 2025-008 Owner: SPXS Country: US Constellation: starlink
LEOCIRCULAR

Über Starlink 11535

Beschreibung wird geladen...

Live-Position

3D-Globus wird geladen...

Nächste Überflüge

Höhenverlauf

Altitude vs Time

uPlot chart will show altitude changes over time

Zweizeiliger Elementsatz

1 62595U 25008J 25259.94909270 .00253392 00000-0 19098-2 0 9998
2 62595 43.0014 93.0308 0002883 251.9310 108.1243 15.70948840 39812
Epoch: 16. Sept. 2025 • Age: 22 hours

Aktueller Status

Höhe 358.0 km
Geschwindigkeit 7.70 km/s
Subsatellitenpunkt -19.75°S, 22.47°W
Startdatum 13. Jan. 2025
Alter 0.6 years
Typ internet

Technische Details

Klassifizierung Payload
Masse 960.00 kg
Trockenmasse 910.00 kg
Gesamtmasse 960.00 kg
Länge 0.30 m
Durchmesser 4.10 m
Spannweite 29.00 m
Form Box + pan
Hersteller SPXS
Bus-Typ Starlink V2MD
Phasenstatus In Orbit
Besitzer/Staat SPXS/US

Große Konstellationen

Loading constellations...